When you browse on this site, cookies collect data to enhance your experience and personalize the content and advertising you see.
Visit our Privacy Policy to learn more. By continuing to use the site, you agree to this use of cookies and data.
  • En España
  • Lista de países
  • Para 7 días
  • Temperatura del agua
  • El tiempo en el mapa
  • Informadores
  • user-avatar
    Iniciar sesión

    Tiempo cada hora Totonicapán

    Hoy, 28 Febrero, Viernes

    Tiempo Temperatura Precipitaciones Viento Presión Humedad
    00:00 +7°C° 0 mm 2 mps 555 mmHg 86%
    01:00 +6°C° 0 mm 2 mps 554 mmHg 85%
    02:00 +6°C° 0 mm 2 mps 554 mmHg 85%
    03:00 +6°C° 0 mm 2 mps 553 mmHg 85%
    04:00 +6°C° 0 mm 2 mps 553 mmHg 85%
    05:00 +6°C° 0 mm 2 mps 553 mmHg 85%
    06:00 +6°C° 0 mm 2 mps 553 mmHg 86%
    07:00 +8°C° 0 mm 2 mps 555 mmHg 78%
    08:00 +10°C° 0 mm 2 mps 556 mmHg 70%
    09:00 +13°C° 0 mm 1 mps 558 mmHg 62%
    10:00 +15°C° 0 mm 2 mps 559 mmHg 56%
    11:00 +17°C° 0 mm 2 mps 560 mmHg 50%
    12:00 +19°C° 0 mm 2 mps 561 mmHg 44%
    13:00 +18°C° 0 mm 2 mps 560 mmHg 46%
    14:00 +18°C° 0 mm 2 mps 559 mmHg 49%
    15:00 +18°C° 0 mm 2 mps 559 mmHg 51%
    16:00 +16°C° 0.1 mm 2 mps 558 mmHg 60%
    17:00 +13°C° 0.1 mm 2 mps 557 mmHg 69%
    18:00 +10°C° 0.1 mm 2 mps 556 mmHg 78%
    19:00 +9°C° 0 mm 2 mps 556 mmHg 82%
    20:00 +8°C° 0 mm 2 mps 555 mmHg 85%
    21:00 +7°C° 0 mm 3 mps 555 mmHg 88%
    22:00 +7°C° 0 mm 3 mps 555 mmHg 87%
    23:00 +5°C° 0 mm 3 mps 555 mmHg 86%

    Mañana, 29 Febrero, Sábado

    Tiempo Temperatura Precipitaciones Viento Presión Humedad
    00:00 +6°C° 0 mm 2 mps 555 mmHg 84%
    01:00 +6°C° 0 mm 2 mps 554 mmHg 85%
    02:00 +5°C° 0 mm 2 mps 554 mmHg 86%
    03:00 +5°C° 0 mm 2 mps 553 mmHg 86%
    04:00 +5°C° 0 mm 2 mps 553 mmHg 86%
    05:00 +5°C° 0 mm 2 mps 553 mmHg 86%
    06:00 +5°C° 0 mm 2 mps 554 mmHg 86%
    07:00 +7°C° 0 mm 2 mps 555 mmHg 78%
    08:00 +9°C° 0 mm 2 mps 556 mmHg 71%
    09:00 +12°C° 0 mm 2 mps 557 mmHg 63%
    10:00 +14°C° 0 mm 2 mps 558 mmHg 55%
    11:00 +16°C° 0 mm 2 mps 559 mmHg 47%
    12:00 +19°C° 0 mm 2 mps 560 mmHg 39%
    13:00 +19°C° 0 mm 2 mps 560 mmHg 41%
    14:00 +19°C° 0 mm 3 mps 559 mmHg 43%
    15:00 +19°C° 0 mm 3 mps 559 mmHg 45%
    16:00 +16°C° 0 mm 2 mps 558 mmHg 57%
    17:00 +14°C° 0 mm 2 mps 557 mmHg 69%
    18:00 +12°C° 0 mm 2 mps 555 mmHg 81%
    19:00 +9°C° 0 mm 2 mps 555 mmHg 84%
    20:00 +8°C° 0 mm 2 mps 555 mmHg 88%
    21:00 +7°C° 0 mm 2 mps 555 mmHg 92%
    22:00 +7°C° 0 mm 2 mps 554 mmHg 89%
    23:00 +6°C° 0 mm 2 mps 554 mmHg 87%

    Pasado mañana, 1 Marzo, Domingo

    Tiempo Temperatura Precipitaciones Viento Presión Humedad
    00:00 +6°C° 0 mm 2 mps 554 mmHg 85%
    01:00 +6°C° 0 mm 2 mps 554 mmHg 84%
    02:00 +7°C° 0 mm 1 mps 553 mmHg 84%
    03:00 +6°C° 0 mm 1 mps 553 mmHg 83%
    04:00 +7°C° 0 mm 1 mps 553 mmHg 84%
    05:00 +7°C° 0 mm 1 mps 553 mmHg 85%
    06:00 +7°C° 0 mm 1 mps 553 mmHg 86%
    07:00 +10°C° 0 mm 1 mps 555 mmHg 75%
    08:00 +13°C° 0 mm 1 mps 557 mmHg 63%
    09:00 +18°C° 0 mm 1 mps 560 mmHg 51%
    10:00 +19°C° 0 mm 1 mps 560 mmHg 46%
    11:00 +19°C° 0 mm 2 mps 560 mmHg 40%
    12:00 +21°C° 0 mm 3 mps 560 mmHg 35%
    13:00 +20°C° 0 mm 3 mps 560 mmHg 35%
    14:00 +20°C° 0 mm 3 mps 559 mmHg 36%
    15:00 +20°C° 0 mm 3 mps 558 mmHg 36%
    16:00 +18°C° 0.1 mm 3 mps 557 mmHg 49%
    17:00 +15°C° 0.1 mm 2 mps 556 mmHg 62%
    18:00 +13°C° 0.1 mm 1 mps 555 mmHg 74%
    19:00 +12°C° 0 mm 1 mps 554 mmHg 79%
    20:00 +11°C° 0 mm 1 mps 554 mmHg 83%
    21:00 +10°C° 0 mm 1 mps 554 mmHg 88%
    22:00 +9°C° 0 mm 1 mps 554 mmHg 86%
    23:00 +9°C° 0 mm 1 mps 553 mmHg 84%

    2 Marzo, Lunes

    Tiempo Temperatura Precipitaciones Viento Presión Humedad
    00:00 +9°C° 0 mm 1 mps 553 mmHg 82%
    01:00 +9°C° 0 mm 1 mps 553 mmHg 79%
    02:00 +9°C° 0 mm 1 mps 552 mmHg 76%
    03:00 +9°C° 0 mm 1 mps 552 mmHg 74%
    04:00 +9°C° 0 mm 1 mps 552 mmHg 72%
    05:00 +8°C° 0 mm 1 mps 552 mmHg 71%
    06:00 +8°C° 0 mm 1 mps 552 mmHg 70%
    07:00 +12°C° 0 mm 1 mps 554 mmHg 58%
    08:00 +15°C° 0 mm 1 mps 557 mmHg 47%
    09:00 +19°C° 0 mm 1 mps 559 mmHg 36%
    10:00 +21°C° 0 mm 1 mps 559 mmHg 34%
    11:00 +21°C° 0 mm 2 mps 559 mmHg 31%
    12:00 +22°C° 0 mm 3 mps 560 mmHg 29%
    13:00 +21°C° 0 mm 3 mps 559 mmHg 33%
    14:00 +21°C° 0 mm 3 mps 558 mmHg 37%
    15:00 +20°C° 0 mm 3 mps 556 mmHg 40%
    16:00 +18°C° 0 mm 2 mps 555 mmHg 52%
    17:00 +16°C° 0 mm 2 mps 554 mmHg 63%
    18:00 +14°C° 0 mm 1 mps 553 mmHg 75%
    19:00 +13°C° 0 mm 1 mps 553 mmHg 79%
    20:00 +12°C° 0 mm 1 mps 553 mmHg 83%
    21:00 +11°C° 0 mm 1 mps 553 mmHg 87%
    22:00 +10°C° 0 mm 1 mps 553 mmHg 85%
    23:00 +10°C° 0 mm 1 mps 553 mmHg 84%

    3 Marzo, Martes

    Tiempo Temperatura Precipitaciones Viento Presión Humedad
    00:00 +10°C° 0 mm 1 mps 553 mmHg 82%
    01:00 +10°C° 0 mm 1 mps 552 mmHg 84%
    02:00 +9°C° 0 mm 1 mps 552 mmHg 85%
    03:00 +9°C° 0 mm 1 mps 551 mmHg 87%
    04:00 +9°C° 0 mm 1 mps 551 mmHg 88%
    05:00 +9°C° 0 mm 1 mps 551 mmHg 89%
    06:00 +9°C° 0 mm 1 mps 551 mmHg 90%
    07:00 +11°C° 0 mm 1 mps 553 mmHg 78%
    08:00 +14°C° 0 mm 1 mps 555 mmHg 66%
    09:00 +18°C° 0 mm 1 mps 557 mmHg 54%
    10:00 +18°C° 0 mm 2 mps 557 mmHg 51%
    11:00 +19°C° 0 mm 2 mps 558 mmHg 49%
    12:00 +20°C° 0 mm 2 mps 558 mmHg 46%
    13:00 +20°C° 0 mm 2 mps 557 mmHg 50%
    14:00 +19°C° 0 mm 2 mps 556 mmHg 55%
    15:00 +18°C° 0 mm 2 mps 555 mmHg 60%
    16:00 +16°C° 0 mm 2 mps 554 mmHg 67%
    17:00 +15°C° 0 mm 2 mps 553 mmHg 75%
    18:00 +13°C° 0 mm 1 mps 553 mmHg 83%
    19:00 +13°C° 0 mm 1 mps 553 mmHg 85%
    20:00 +12°C° 0 mm 1 mps 553 mmHg 86%
    21:00 +12°C° 0 mm 1 mps 554 mmHg 87%
    22:00 +11°C° 0 mm 1 mps 553 mmHg 88%
    23:00 +11°C° 0 mm 1 mps 553 mmHg 89%

    4 Marzo, Miércoles

    Tiempo Temperatura Precipitaciones Viento Presión Humedad
    00:00 +10°C° 0 mm 1 mps 553 mmHg 89%
    01:00 +10°C° 0 mm 1 mps 553 mmHg 90%
    02:00 +10°C° 0 mm 1 mps 552 mmHg 90%
    03:00 +10°C° 0 mm 1 mps 552 mmHg 90%
    04:00 +10°C° 0 mm 1 mps 552 mmHg 88%
    05:00 +9°C° 0 mm 1 mps 552 mmHg 85%
    06:00 +9°C° 0 mm 1 mps 552 mmHg 82%
    07:00 +12°C° 0 mm 1 mps 554 mmHg 71%
    08:00 +15°C° 0 mm 1 mps 556 mmHg 59%
    09:00 +19°C° 0 mm 1 mps 558 mmHg 48%
    10:00 +20°C° 0 mm 2 mps 559 mmHg 43%
    11:00 +21°C° 0 mm 2 mps 560 mmHg 37%
    12:00 +24°C° 0 mm 3 mps 560 mmHg 32%
    13:00 +22°C° 0 mm 3 mps 560 mmHg 35%
    14:00 +22°C° 0 mm 4 mps 559 mmHg 38%
    15:00 +21°C° 0 mm 5 mps 558 mmHg 41%
    16:00 +19°C° 0 mm 4 mps 557 mmHg 51%
    17:00 +17°C° 0 mm 3 mps 556 mmHg 61%
    18:00 +14°C° 0 mm 2 mps 555 mmHg 71%
    19:00 +13°C° 0 mm 2 mps 555 mmHg 78%
    20:00 +12°C° 0 mm 2 mps 555 mmHg 84%
    21:00 +10°C° 0 mm 2 mps 555 mmHg 90%
    22:00 +10°C° 0 mm 2 mps 555 mmHg 89%
    23:00 +10°C° 0 mm 3 mps 555 mmHg 89%
    Mostrar más